Boulder City, NV

3:52 PM PST on November 18, 2019 (GMT -0800)
Boulder City

Weather History for KBVU - September, 2019

Change the Weather History Date:

Wednesday, September 25, 2019

  Actual Average (KLAS) Record (KLAS)
Temperature  
Mean Temperature 78 °F -  
Max Temperature 93 °F 89 °F 106 °F (1947)
Min Temperature 64 °F 64 °F 47 °F (1945)
Cooling Degree Days 14    
Growing Degree Days 28 (Base 50)    
Moisture  
Dew Point 38 °F    
Average Humidity 25    
Maximum Humidity 42    
Minimum Humidity 12    
Precipitation  
Precipitation 0.00 in - - ()
Sea Level Pressure  
Sea Level Pressure 29.88 in    
Wind  
Wind Speed 5 mph ()    
Max Wind Speed 16 mph    
Max Gust Speed 24 mph    
Visibility 10.0 miles    
Events      
Averages and records for this station are not official NWS values.
T = Trace of Precipitation, MM = Missing Value Source: Averaged Metar Reports

Daily Weather History Graph

Daily Weather History Graph

Search for Another Location

Airport or City:

Astronomy

Sep. 25, 2019 Rise Set
Actual Time 6:29 AM PDT 6:32 PM PDT
Civil Twilight 6:04 AM PDT 6:57 PM PDT
Nautical Twilight 5:34 AM PDT 7:27 PM PDT
Astronomical Twilight 5:04 AM PDT 7:57 PM PDT
Moon 2:38 AM PDT (9/25) 4:58 PM PDT (9/25)
Length of Visible Light 12h 53m
Length of Day
12h 02m
Waning Crescent, 13% of the Moon is Illuminated
Sep 25
Waning Crescent
Sep 28
New
Oct 5
First Quarter
Oct 13
Full
Oct 21
Last Quarter

Hourly Weather History & Observations

Time (PDT) Temp. Heat Index Dew Point Humidity Pressure Visibility Wind Dir Wind Speed Gust Speed Precip Events Conditions
12:15 AM 73.4 °F - 35.6 °F 25% 29.88 in 10.0 mi NNW 5.8 mph - N/A   Scattered Clouds
12:35 AM 73.4 °F - 32.0 °F 22% 29.88 in 10.0 mi North 10.4 mph - N/A   Mostly Cloudy
12:55 AM 77.0 °F - 30.2 °F 18% 29.87 in 10.0 mi NNE 9.2 mph - N/A   Scattered Clouds
1:15 AM 75.2 °F - 33.8 °F 22% 29.88 in 10.0 mi Calm Calm - N/A   Partly Cloudy
1:35 AM 71.6 °F - 28.4 °F 20% 29.88 in 10.0 mi Calm Calm - N/A   Clear
1:55 AM 68.0 °F - 33.8 °F 28% 29.88 in 10.0 mi NE 4.6 mph - N/A   Clear
2:15 AM 68.0 °F - 33.8 °F 28% 29.87 in 10.0 mi NNE 5.8 mph - N/A   Partly Cloudy
2:35 AM 69.8 °F - 32.0 °F 25% 29.88 in 10.0 mi South 3.5 mph - N/A   Partly Cloudy
2:55 AM 68.0 °F - 35.6 °F 30% 29.88 in 10.0 mi NNE 3.5 mph - N/A   Partly Cloudy
3:15 AM 66.2 °F - 33.8 °F 30% 29.87 in 10.0 mi North 5.8 mph - N/A   Partly Cloudy
3:35 AM 69.8 °F - 32.0 °F 25% 29.87 in 10.0 mi Calm Calm - N/A   Partly Cloudy
3:55 AM 66.2 °F - 35.6 °F 32% 29.88 in 10.0 mi Calm Calm - N/A   Partly Cloudy
4:15 AM 66.2 °F - 35.6 °F 32% 29.88 in 10.0 mi Calm Calm - N/A   Partly Cloudy
4:35 AM 66.2 °F - 33.8 °F 30% 29.88 in 10.0 mi Calm Calm - N/A   Scattered Clouds
4:55 AM 68.0 °F - 35.6 °F 30% 29.89 in 10.0 mi Calm Calm - N/A   Scattered Clouds
5:15 AM 64.4 °F - 37.4 °F 37% 29.89 in 10.0 mi Calm Calm - N/A   Scattered Clouds
5:35 AM 64.4 °F - 41.0 °F 42% 29.90 in 10.0 mi NNE 4.6 mph - N/A   Scattered Clouds
5:55 AM 66.2 °F - 41.0 °F 40% 29.90 in 10.0 mi NE 5.8 mph - N/A   Partly Cloudy
6:15 AM 68.0 °F - 41.0 °F 37% 29.90 in 10.0 mi NE 4.6 mph - N/A   Partly Cloudy
6:35 AM 64.4 °F - 41.0 °F 42% 29.91 in 10.0 mi Variable 4.6 mph - N/A   Clear
6:55 AM 66.2 °F - 35.6 °F 32% 29.91 in 10.0 mi NNW 4.6 mph - N/A   Clear
7:15 AM 66.2 °F - 33.8 °F 30% 29.92 in 10.0 mi Calm Calm - N/A   Clear
7:35 AM 66.2 °F - 33.8 °F 30% 29.93 in 10.0 mi Calm Calm - N/A   Clear
8:15 AM 68.0 °F - 35.6 °F 30% 29.94 in 9.0 mi Calm Calm - N/A   Clear
8:35 AM 71.6 °F - 33.8 °F 25% 29.94 in 10.0 mi Calm Calm - N/A   Clear
8:55 AM 73.4 °F - 33.8 °F 23% 29.94 in 10.0 mi Calm Calm - N/A   Clear
9:15 AM 75.2 °F - 35.6 °F 24% 29.94 in 10.0 mi Calm Calm - N/A   Clear
9:35 AM 78.8 °F - 37.4 °F 23% 29.94 in 10.0 mi Variable 4.6 mph - N/A   Clear
9:55 AM 80.6 °F - 37.4 °F 21% 29.94 in 10.0 mi Calm Calm - N/A   Clear
10:15 AM 82.4 °F - 37.4 °F 20% 29.95 in 10.0 mi South 5.8 mph - N/A   Clear
10:35 AM 82.4 °F - 35.6 °F 19% 29.94 in 10.0 mi SW 4.6 mph - N/A   Clear
10:55 AM 82.4 °F - 35.6 °F 19% 29.93 in 10.0 mi Calm Calm - N/A   Clear
11:15 AM 86.0 °F - 37.4 °F 18% 29.93 in 10.0 mi NE 6.9 mph - N/A   Clear
11:35 AM 86.0 °F - 37.4 °F 18% 29.93 in 10.0 mi NE 8.1 mph - N/A   Clear
11:55 AM 87.8 °F - 37.4 °F 17% 29.93 in 10.0 mi NE 6.9 mph - N/A   Clear
12:15 PM 87.8 °F - 37.4 °F 17% 29.92 in 10.0 mi NNE 9.2 mph - N/A   Clear
12:35 PM 89.6 °F - 37.4 °F 16% 29.91 in 10.0 mi NNE 11.5 mph - N/A   Clear
12:55 PM 89.6 °F - 35.6 °F 15% 29.90 in 10.0 mi North 8.1 mph 13.8 mph N/A   Clear
1:15 PM 89.6 °F - 37.4 °F 16% 29.89 in 10.0 mi NE 9.2 mph - N/A   Clear
1:55 PM 91.4 °F - 33.8 °F 13% 29.87 in 10.0 mi NNE 11.5 mph - N/A   Clear
2:15 PM 89.6 °F - 35.6 °F 15% 29.86 in 10.0 mi NE 4.6 mph 11.5 mph N/A   Clear
2:35 PM 91.4 °F - 33.8 °F 13% 29.86 in 10.0 mi North 8.1 mph - N/A   Clear
2:55 PM 91.4 °F - 33.8 °F 13% 29.85 in 10.0 mi Variable 5.8 mph - N/A   Clear
3:15 PM 89.6 °F - 32.0 °F 13% 29.84 in 10.0 mi Variable 3.5 mph - N/A   Clear
3:35 PM 91.4 °F - 32.0 °F 12% 29.83 in 10.0 mi ENE 8.1 mph - N/A   Clear
3:55 PM 91.4 °F - 32.0 °F 12% 29.83 in 10.0 mi Variable 4.6 mph - N/A   Clear
4:15 PM 93.2 °F - 33.8 °F 12% 29.82 in 10.0 mi ENE 5.8 mph - N/A   Clear
4:35 PM 93.2 °F - 33.8 °F 12% 29.82 in 10.0 mi NE 5.8 mph - N/A   Clear
4:55 PM 91.4 °F - 35.6 °F 14% 29.82 in 10.0 mi ENE 6.9 mph - N/A   Clear
5:15 PM 91.4 °F - 35.6 °F 14% 29.82 in 10.0 mi ENE 8.1 mph - N/A   Clear
5:35 PM 89.6 °F - 37.4 °F 16% 29.82 in 10.0 mi NE 5.8 mph - N/A   Clear
5:55 PM 89.6 °F - 37.4 °F 16% 29.81 in 10.0 mi NNE 6.9 mph - N/A   Clear
6:15 PM 87.8 °F - 39.2 °F 18% 29.81 in 10.0 mi Calm Calm - N/A   Clear
6:35 PM 87.8 °F - 37.4 °F 17% 29.82 in 10.0 mi SE 4.6 mph - N/A   Clear
6:55 PM 87.8 °F - 41.0 °F 19% 29.83 in 10.0 mi SSE 8.1 mph - N/A   Clear
7:15 PM 86.0 °F - 42.8 °F 22% 29.83 in 10.0 mi SE 9.2 mph - N/A   Clear
7:35 PM 84.2 °F - 42.8 °F 23% 29.85 in 10.0 mi SE 4.6 mph - N/A   Clear
7:55 PM 84.2 °F - 44.6 °F 25% 29.86 in 10.0 mi SE 8.1 mph - N/A   Clear
8:15 PM 82.4 °F - 44.6 °F 26% 29.87 in 10.0 mi West 9.2 mph - N/A   Clear
8:35 PM 82.4 °F - 48.2 °F 30% 29.88 in 10.0 mi South 11.5 mph - N/A   Clear
8:55 PM 80.6 °F 80.3 °F 53.6 °F 39% 29.89 in 10.0 mi SSE 10.4 mph 18.4 mph N/A   Clear
9:15 PM 80.6 °F - 51.8 °F 37% 29.90 in 10.0 mi South 13.8 mph 24.2 mph N/A   Clear
9:35 PM 78.8 °F - 51.8 °F 39% 29.90 in 10.0 mi SSW 16.1 mph - N/A   Clear
9:55 PM 78.8 °F - 53.6 °F 42% 29.91 in 10.0 mi South 8.1 mph 15.0 mph N/A   Clear
10:15 PM 78.8 °F - 51.8 °F 39% 29.90 in 10.0 mi SSW 10.4 mph 18.4 mph N/A   Clear
10:35 PM 78.8 °F - 51.8 °F 39% 29.90 in 10.0 mi WSW 9.2 mph - N/A   Clear
10:55 PM 78.8 °F - 51.8 °F 39% 29.90 in 10.0 mi WSW 10.4 mph 17.3 mph N/A   Clear
11:15 PM 78.8 °F - 51.8 °F 39% 29.90 in 10.0 mi SW 10.4 mph - N/A   Clear
11:35 PM 78.8 °F - 50.0 °F 36% 29.91 in 10.0 mi Calm Calm - N/A   Clear
11:55 PM 77.0 °F - 50.0 °F 39% 29.91 in 10.0 mi SE 4.6 mph - N/A   Clear